Terminal Aerodrome Forecast
Issued by NWS Wilmington, OH

Current Version | Previous Version | Graphics & Text | Print | Product List | Glossary On
Versions: 1 2 3 4 5 6 7 8 9 10 11 12 13 14 15 16 17 18 19 20 21 22 23 24 25 26 27 28
053
FTUS41 KILN 140356 AAD
TAFCMH
TAF AMD
KCMH 140356Z 1404/1424 27018G35KT P6SM -RASN BKN018 OVC027
     FM140800 29015G26KT P6SM OVC025
     FM141200 33009KT P6SM BKN015
     FM141700 33006KT P6SM BKN025
     FM142300 VRB03KT P6SM BKN050=

USA.gov is the U.S. government's official web portal to all federal, state and local government web resources and services.